Location: Clarion
(42.7316°N, 93.7330°W)
Time: 09:17:47
(UTC+00:00)

JB-3 - Pass Details

Date: 22 April 2026
Orbit: 486 x 531 km, 97.3° (Epoch: 17 May)

Event Time Altitude Azimuth Distance (km) Brightness Sun altitude
Exits shadow 09:50:18 22° 186° (S) 1,125 5.5 -16.0°
Maximum altitude 09:52:28 58° 259° (W) 575 4.1 -15.7°
Drops below altitude 10° 09:56:02 10° 340° (NNW) 1,680 7.0 -15.1°
Sets 09:58:08 0° 344° (NNW) 2,566 8.0 -14.8°
